TimeHST,TemperatureF,Dew PointF,Humidity,Sea Level PressureIn,VisibilityMPH,Wind Direction,Wind SpeedMPH,Gust SpeedMPH,PrecipitationIn,Events,Conditions,WindDirDegrees,DateUTC
12:10 AM,69.8,69.8,100,30.15,4.0,Calm,Calm,-,N/A,,Overcast,0,2014-05-08 10:10:00
12:26 AM,69.8,69.8,100,30.15,4.0,WNW,3.5,-,N/A,,Overcast,300,2014-05-08 10:26:00
12:56 AM,70.0,70.0,100,30.08,5.0,West,4.6,-,N/A,,Overcast,280,2014-05-08 10:56:00
1:56 AM,69.8,69.8,100,30.12,5.0,North,3.5,-,N/A,,Overcast,10,2014-05-08 11:56:00
2:17 AM,69.8,69.8,100,30.11,5.0,Calm,Calm,-,N/A,,Overcast,0,2014-05-08 12:17:00
2:38 AM,69.8,69.8,100,30.10,5.0,NNW,3.5,-,N/A,,Mostly Cloudy,330,2014-05-08 12:38:00
2:56 AM,68.0,68.0,100,30.03,5.0,NNW,4.6,-,N/A,,Mostly Cloudy,330,2014-05-08 12:56:00
3:08 AM,68.0,68.0,100,30.09,5.0,NNW,4.6,-,N/A,,Mostly Cloudy,340,2014-05-08 13:08:00
3:29 AM,68.0,68.0,100,30.09,5.0,North,4.6,-,N/A,,Mostly Cloudy,360,2014-05-08 13:29:00
3:39 AM,68.0,68.0,100,30.09,5.0,North,5.8,-,N/A,,Scattered Clouds,10,2014-05-08 13:39:00
3:56 AM,68.0,68.0,100,30.03,6.0,North,4.6,-,N/A,,Partly Cloudy,10,2014-05-08 13:56:00
4:56 AM,65.8,65.8,100,30.04,10.0,ENE,3.5,-,N/A,,Clear,60,2014-05-08 14:56:00
5:56 AM,64.9,64.9,100,30.04,10.0,Calm,Calm,-,N/A,,Clear,0,2014-05-08 15:56:00
6:56 AM,68.9,68.9,100,30.06,9.0,North,4.6,-,N/A,,Partly Cloudy,10,2014-05-08 16:56:00
7:11 AM,71.6,71.6,100,30.12,10.0,North,4.6,-,N/A,,Mostly Cloudy,350,2014-05-08 17:11:00
7:22 AM,71.6,69.8,94,30.12,10.0,North,4.6,-,N/A,,Scattered Clouds,350,2014-05-08 17:22:00
7:56 AM,74.8,68.9,82,30.07,10.0,NNW,5.8,-,N/A,,Partly Cloudy,330,2014-05-08 17:56:00
8:56 AM,77.0,66.9,71,30.09,9.0,WNW,6.9,-,N/A,,Overcast,290,2014-05-08 18:56:00
9:08 AM,75.2,69.8,83,30.15,8.0,NW,8.1,-,N/A,,Overcast,310,2014-05-08 19:08:00
9:25 AM,75.2,69.8,83,30.15,7.0,WNW,9.2,-,N/A,,Overcast,300,2014-05-08 19:25:00
9:56 AM,77.0,68.0,74,30.09,9.0,WNW,6.9,-,N/A,,Overcast,300,2014-05-08 19:56:00
10:56 AM,79.9,66.9,64,30.07,9.0,NW,6.9,-,N/A,,Scattered Clouds,320,2014-05-08 20:56:00
11:56 AM,81.0,66.9,62,30.05,7.0,West,8.1,-,N/A,,Scattered Clouds,280,2014-05-08 21:56:00
12:11 PM,82.4,66.2,58,30.12,9.0,WNW,6.9,-,N/A,,Mostly Cloudy,290,2014-05-08 22:11:00
12:56 PM,81.9,66.9,60,30.04,10.0,WNW,6.9,-,N/A,,Mostly Cloudy,290,2014-05-08 22:56:00
1:23 PM,82.4,66.2,58,30.11,9.0,WNW,4.6,-,N/A,,Unknown,290,2014-05-08 23:23:00
1:56 PM,84.2,66.2,55,30.09,7.0,Variable,6.9,-,N/A,,Mostly Cloudy,0,2014-05-08 23:56:00
2:56 PM,82.9,65.8,56,30.01,4.0,West,9.2,-,N/A,,Haze,270,2014-05-09 00:56:00
3:18 PM,82.4,66.2,58,30.07,10.0,West,8.1,-,N/A,,Mostly Cloudy,260,2014-05-09 01:18:00
3:56 PM,79.0,65.8,64,30.01,9.0,West,8.1,-,N/A,,Overcast,260,2014-05-09 01:56:00
4:07 PM,78.8,66.2,65,30.07,10.0,West,10.4,-,N/A,,Overcast,270,2014-05-09 02:07:00
4:56 PM,78.8,66.2,65,30.06,9.0,WSW,11.5,-,N/A,,Mostly Cloudy,250,2014-05-09 02:56:00
5:08 PM,78.8,66.2,65,30.07,10.0,West,8.1,-,N/A,,Overcast,270,2014-05-09 03:08:00
5:56 PM,75.9,66.9,74,30.02,10.0,West,8.1,-,N/A,,Overcast,270,2014-05-09 03:56:00
6:40 PM,73.4,66.2,78,30.09,10.0,West,4.6,-,N/A,,Overcast,270,2014-05-09 04:40:00
6:56 PM,73.9,68.9,84,30.04,10.0,West,6.9,-,N/A,,Overcast,270,2014-05-09 04:56:00
7:23 PM,71.6,68.0,88,30.10,10.0,WSW,3.5,-,N/A,,Overcast,250,2014-05-09 05:23:00
7:56 PM,71.6,68.0,88,30.12,10.0,Calm,Calm,-,N/A,,Overcast,0,2014-05-09 05:56:00
8:56 PM,72.0,68.9,90,30.07,10.0,East,3.5,-,N/A,,Overcast,90,2014-05-09 06:56:00
9:56 PM,70.9,68.0,91,30.08,10.0,NE,3.5,-,N/A,,Clear,50,2014-05-09 07:56:00
10:56 PM,68.0,68.0,100,30.08,10.0,East,4.6,-,N/A,,Partly Cloudy,90,2014-05-09 08:56:00
11:19 PM,69.8,68.0,94,30.14,10.0,East,4.6,-,N/A,,Mostly Cloudy,100,2014-05-09 09:19:00
11:56 PM,70.0,64.9,84,30.06,10.0,Calm,Calm,-,N/A,,Overcast,0,2014-05-09 09:56:00